Regional Weather Roundup
Issued by NWS

Home | Current Version | Previous Version | Text Only | Print | Product List | Glossary On
Versions: 1 2 3 4 5 6 7 8 9 10 11 12 13 14 15 16 17 18 19 20 21 22 23 24 25 26 27 28 29 30 31 32 33 34 35 36 37 38 39 40 41 42 43 44 45 46 47 48 49 50
000
ASUS44 KJAN 200610
RWRMS

MISSISSIPPI HOURLY WEATHER ROUNDUP
NATIONAL WEATHER SERVICE JACKSON MS
100 AM CDT SUN APR 20 2014

NOTE: "FAIR: INDICATES FEW OR NO CLOUDS BELOW 12,000 FEET WITH NO
SIGNIFICANT WEATHER AND/OR OBSTRUCTIONS TO VISIBILITY.

MSZ001>002-007>008-010>013-018>021-025>028-034>036-200700-
NORTHWEST MISSISSIPPI

CITY           SKY/WX    TMP DP  RH WIND       PRES   REMARKS
CLARKSDALE       N/A     55  50  82 CALM      30.15S
CLEVELAND      FAIR      58  53  83 CALM      30.14R
GREENWOOD      FAIR      52  49  89 NE3       30.13F
6HR MIN TEMP:  52; 6HR MAX TEMP:  75;

GREENVILLE     FAIR      59  52  77 CALM      30.14S
6HR MIN TEMP:  59; 6HR MAX TEMP:  74;

GRENADA        FAIR      50  48  93 CALM      30.14F
OLIVE BRANCH   CLEAR     59  43  55 CALM      30.15F
OXFORD         FAIR      50  46  87 CALM      30.15F
TUNICA         FAIR      55  50  82 CALM      30.15F
$$

MSZ003>006-009-014>017-022>024-029>033-037>039-200700-
NORTHEAST MISSISSIPPI

CITY           SKY/WX    TMP DP  RH WIND       PRES   REMARKS
BELMONT        FAIR      49  47  93 CALM      30.17R
COLUMBUS AFB   FAIR      53  50  92 N2        30.14F
6HR MIN TEMP:  52; 6HR MAX TEMP:  74; 6HR PCP: TRACE;

CORINTH        FAIR      50  46  87 CALM      30.17S
GOLDN TRIANGLE FAIR      57  43  58 CALM      30.16F
STARKVILLE     FAIR      50  46  87 CALM      30.14F
TUPELO         FAIR      53  48  83 CALM      30.16R
6HR MIN TEMP:  53; 6HR MAX TEMP:  73;

$$

MSZ040-058-200700-
CENTRAL MISSISSIPPI

CITY           SKY/WX    TMP DP  RH WIND       PRES   REMARKS
JACKSON INTL   FAIR      54  52  93 CALM      30.13F
6HR MIN TEMP:  54; 6HR MAX TEMP:  74;

JACKSON HAWKNS FAIR      57  52  83 CALM      30.13F
6HR MIN TEMP:  57; 6HR MAX TEMP:  75;

MERIDIAN KEY   FAIR      51  49  92 CALM      30.15S
6HR MIN TEMP:  51; 6HR MAX TEMP:  72;

MERIDIAN NAS   FAIR      53  49  86 CALM      30.15S
6HR MIN TEMP:  52; 6HR MAX TEMP:  74;

RAYMOND        FAIR      54  48  82 CALM      30.13F HAZE
VICKSBURG      FAIR      61  58  90 CALM      30.13F
6HR MIN TEMP:  60; 6HR MAX TEMP:  74;

$$

MSZ059>079-200700-
SOUTH MISSISSIPPI

CITY           SKY/WX    TMP DP  RH WIND       PRES   REMARKS
BROOKHAVEN     FAIR      54  52  94 CALM      30.14F
COLUMBIA       FAIR      52  50  93 MISG      30.11F FOG
HATTIESBURG    FAIR      55  53  93 CALM      30.13F
6HR MIN TEMP:  54; 6HR MAX TEMP:  76;

MCCOMB         FAIR      60  51  72 N5        30.12F
6HR MIN TEMP:  58; 6HR MAX TEMP:  75;

NATCHEZ        FAIR      55  52  88 CALM      30.13S
6HR MIN TEMP:  55; 6HR MAX TEMP:  73;

PINE BELT      FAIR      54  50  87 CALM      30.13F
6HR MIN TEMP:  54; 6HR MAX TEMP:  73;

$$

MSZ080>082-200700-
COASTAL MISSISSIPPI

CITY           SKY/WX    TMP DP  RH WIND       PRES   REMARKS
BILOXI         FAIR      61  54  79 NE5       30.10S
6HR MIN TEMP:  61; 6HR MAX TEMP:  75;

PASCAGOULA     FAIR      55  54  96 CALM      30.10F
6HR MIN TEMP:  54; 6HR MAX TEMP:  74;

GULFPORT       FAIR      62  54  74 N3        30.09F
6HR MIN TEMP:  60; 6HR MAX TEMP:  78;

$$



USA.gov is the U.S. government's official web portal to all federal, state and local government web resources and services.